CZ-4 DEB, 26205

Orbit data source: Space-Track

CZ-4 DEB, 26205 is space debris in SSO originally from a launch on Thu, 14 Oct 1999 UTC launched from the Taiyaun Space Center, China (TSC). Debris objects in space refer to the collection of defunct objects orbiting the Earth. Examples of debris include non-operational satellites, rocket bodies, and fragments generated from explosions, collisions, or faulty payload assembly.

Loading next visibility...
Identifier
26205, 1999-057CT
Orbit
SSO
Country
Flag of CNCN / PRC
Related business
Manufacturer
Unknown
Mission
Spacecraft
Bus & Motor
Unknown
Mass
Unknown
Launch date (UTC)
1999-10-14 (26 years ago)
Launch vehicle
Unknown
Launch site
Taiyaun Space Center, China (TSC)
Object type
Payload
Rocket body
Debris
Shape & HBR
Unknown shape, 0.1 m
Radar Cross Section
Small (<0.1 m²)

Expand to show TLE details & history
Last TLE update: 1 day ago

TLE from 1 day ago
0 CZ-4 DEB
1 26205U 99057CT  26036.42923105  .00000564  00000-0  58304-3 0  9996
2 26205  99.1400  32.7077 0641107 170.0361 191.4200 13.12799903235778
Epoch: 2026-02-05T10:18Z
TLE epoch observation values (Epoch: 2026-02-05T10:18:05.562Z)
Latitude
-0.00007°
Longitude
102.60295°
Altitude
1,693.318 km
Speed
6.804 km/s
True Right ascension
02h 10m 49s
True Declination
0° 00' 00"
Sunlit
Object was in daylight at epoch
Visualization orbit readout
Latitude
Unknown
Longitude
Unknown
Altitude
Unknown
Speed
Unknown
Apparent Right ascension
Unknown
Apparent Declination
Unknown
Sunlit
N/A
Visualization observer readout
Local Sidereal Time
17:44:48
Azimuth
Unknown
Elevation
Unknown
Doppler factor
Unknown
Orbital elements
Apogee altitude
1,696.113 km
Perigee altitude
723.196 km
Semi-major axis
7,587.792 km
Eccentricity
0.06411
Inclination
99.14°
RAAN
32.7077°
Arg. of periapsis
170.0361°
True anomaly
190.07173°
Mean anomaly
191.42°
Eccentric anomaly
190.73574°
Mean motion
3.28375 °/min
Orbital period
109.63 mins
BSTAR
0.00058304
Loading maneuver chart data...
Computing Atmospheric mass density...
Loading historical data...
Loading historical data...
Loading historical data...
Loading historical data...
Loading historical data...
Loading historical data...
Loading historical data...

Documentation

Showing up to 5 results
|